OBJECT D, 51949

Orbit data source: Space-Track

You're viewing an Uncataloged Satellite

Recently launched and/or uncataloged satellites may have evolving metadata. Metadata may include but not limited to: Owner, Maufacturer, Bus, Motor, and Mission.

OBJECT D, 51949 is a Chinese satellite in LEO that was launched on Sat, 05 Mar 2022 UTC via a CHANG ZHENG 2C launch vehicle from the Xichang Space Center, China (XSC). Unknown objects in Earth's orbit typically refer to objects detected orbiting the Earth but have not yet been identified or cataloged. These objects could be anything from previously untracked satellites, spent rocket stages, debris from satellite collisions, or even natural meteoroids temporarily captured by Earth's gravity.

Loading next visibility...
Identifier
51949, 2022-023D
Orbit
LEO
Country
Flag of CNCN / PRC
Related business
None
Manufacturer
Unknown
Mission
Operational Commercial Communications
Bus & Motor
Unknown
Mass
Unknown
Launch date (UTC)
2022-03-05 (4 years ago)
Launch vehicle
CHANG ZHENG 2C
Launch site
Xichang Space Center, China (XSC)
Object type
Unknown
Shape & HBR
Box + 1 Pan, 2.5 m
Radar Cross Section
3.313 m², Large (>1 m²)

Expand to show TLE details & history
Last TLE update: 22 hours ago

TLE from 22 hours ago
0 OBJECT D
1 51949U 22023D   26172.53662641  .00008159  00000-0  33457-3 0  9996
2 51949  63.4525 256.9520 0125689 355.4747   4.5217 15.17972602238372
Epoch: 2026-06-21T12:52Z
TLE epoch observation values (Epoch: 2026-06-21T12:52:44.521Z)
Latitude
-0.00007°
Longitude
154.03098°
Altitude
427.552 km
Speed
7.703 km/s
True Right ascension
17h 07m 48s
True Declination
0° 00' 00"
Sunlit
Object was in full shadow at epoch
Visualization orbit readout
Latitude
Unknown
Longitude
Unknown
Altitude
Unknown
Speed
Unknown
Apparent Right ascension
Unknown
Apparent Declination
Unknown
Sunlit
N/A
Visualization observer readout
Local Sidereal Time
21:30:39
Azimuth
Unknown
Elevation
Unknown
Doppler factor
Unknown
Orbital elements
Apogee altitude
597.277 km
Perigee altitude
424.107 km
Semi-major axis
6,888.829 km
Eccentricity
0.01257
Inclination
63.4525°
RAAN
256.952°
Arg. of periapsis
355.4747°
True anomaly
4.63705°
Mean anomaly
4.5217°
Eccentric anomaly
4.57919°
Mean motion
3.79599 °/min
Orbital period
94.84 mins
BSTAR
0.00033457
Loading maneuver chart data...
Computing Atmospheric mass density...
Loading historical data...
Loading historical data...
Loading historical data...
Loading historical data...
Loading historical data...
Loading historical data...
Loading historical data...

Documentation

Showing up to 5 results
|